Terminal Aerodrome Forecast
Issued by NWS Raleigh/Durham, NC

Home | Current Version | Previous Version | Text Only | Print | Product List | Glossary On
Versions: 1 2 3 4 5 6 7 8 9 10 11 12 13 14 15 16 17 18 19 20 21 22 23 24 25 26 27 28 29 30 31 32 33 34 35 36 37 38 39 40 41 42 43 44 45 46 47 48
511
FTUS42 KRAH 060233 AAB
TAFGSO
TAF AMD
KGSO 060233Z 0603/0624 31008KT 4SM RA BR SCT012 SCT040 OVC050
      TEMPO 0603/0606 3SM -RA OVC015
     FM060600 32004KT P6SM OVC050
     FM061500 33008KT P6SM BKN100
     FM061800 32010KT P6SM SCT250 PROB30 0618/0621 P6SM -TSRA
      BKN050CB=

USA.gov is the U.S. government's official web portal to all federal, state and local government web resources and services.